Météo par heure à Alkhan-Kala

Ce jour, 14 Mai, Vendredi

Heure Température Précipitation Vent Pression Humidité
00:00 +18°C° 0 mm 1 m/s 746 mmHg 78%
01:00 +16°C° 0 mm 1 m/s 745 mmHg 78%
02:00 +16°C° 0 mm 1 m/s 745 mmHg 77%
03:00 +16°C° 0 mm 1 m/s 745 mmHg 76%
04:00 +18°C° 0 mm 1 m/s 745 mmHg 75%
05:00 +18°C° 0 mm 1 m/s 745 mmHg 73%
06:00 +19°C° 0 mm 1 m/s 745 mmHg 72%
07:00 +21°C° 0 mm 1 m/s 745 mmHg 65%
08:00 +24°C° 0 mm 1 m/s 745 mmHg 58%
09:00 +26°C° 0 mm 1 m/s 745 mmHg 51%
10:00 +27°C° 0 mm 2 m/s 745 mmHg 48%
11:00 +29°C° 0 mm 2 m/s 745 mmHg 46%
12:00 +30°C° 0 mm 2 m/s 745 mmHg 43%
13:00 +31°C° 0 mm 2 m/s 744 mmHg 41%
14:00 +32°C° 0 mm 2 m/s 744 mmHg 40%
15:00 +32°C° 0 mm 2 m/s 744 mmHg 38%
16:00 +31°C° 0 mm 2 m/s 744 mmHg 44%
17:00 +30°C° 0 mm 2 m/s 744 mmHg 49%
18:00 +28°C° 0 mm 1 m/s 744 mmHg 55%
19:00 +26°C° 0 mm 1 m/s 744 mmHg 58%
20:00 +24°C° 0 mm 1 m/s 744 mmHg 61%
21:00 +22°C° 0 mm 1 m/s 744 mmHg 64%
22:00 +22°C° 0 mm 1 m/s 744 mmHg 63%
23:00 +21°C° 0 mm 1 m/s 744 mmHg 63%

Demain, 15 Mai, Samedi

Heure Température Précipitation Vent Pression Humidité
00:00 +21°C° 0 mm 1 m/s 744 mmHg 62%
01:00 +21°C° 0 mm 1 m/s 744 mmHg 62%
02:00 +20°C° 0 mm 1 m/s 744 mmHg 62%
03:00 +20°C° 0 mm 1 m/s 744 mmHg 62%
04:00 +20°C° 0 mm 1 m/s 744 mmHg 62%
05:00 +21°C° 0 mm 1 m/s 744 mmHg 63%
06:00 +21°C° 0 mm 1 m/s 745 mmHg 63%
07:00 +24°C° 0 mm 1 m/s 745 mmHg 58%
08:00 +26°C° 0 mm 1 m/s 745 mmHg 53%
09:00 +28°C° 0 mm 1 m/s 745 mmHg 48%
10:00 +29°C° 0 mm 1 m/s 745 mmHg 46%
11:00 +30°C° 0 mm 1 m/s 745 mmHg 44%
12:00 +32°C° 0 mm 2 m/s 745 mmHg 42%
13:00 +32°C° 0 mm 2 m/s 745 mmHg 41%
14:00 +32°C° 0 mm 2 m/s 744 mmHg 40%
15:00 +34°C° 0 mm 2 m/s 744 mmHg 40%
16:00 +31°C° 0.1 mm 2 m/s 744 mmHg 44%
17:00 +30°C° 0.1 mm 2 m/s 744 mmHg 49%
18:00 +28°C° 0.1 mm 2 m/s 744 mmHg 53%
19:00 +26°C° 0.1 mm 2 m/s 744 mmHg 57%
20:00 +24°C° 0.1 mm 2 m/s 745 mmHg 60%
21:00 +21°C° 0.1 mm 2 m/s 745 mmHg 63%
22:00 +21°C° 0 mm 1 m/s 744 mmHg 64%
23:00 +21°C° 0 mm 1 m/s 744 mmHg 65%

Après-demain, 16 Mai, Dimanche

Heure Température Précipitation Vent Pression Humidité
00:00 +21°C° 0 mm 1 m/s 744 mmHg 66%
01:00 +20°C° 0 mm 1 m/s 743 mmHg 66%
02:00 +20°C° 0 mm 1 m/s 743 mmHg 66%
03:00 +20°C° 0 mm 1 m/s 743 mmHg 67%
04:00 +20°C° 0 mm 1 m/s 743 mmHg 66%
05:00 +21°C° 0 mm 1 m/s 743 mmHg 65%
06:00 +21°C° 0 mm 1 m/s 743 mmHg 64%
07:00 +23°C° 0 mm 1 m/s 743 mmHg 58%
08:00 +26°C° 0 mm 1 m/s 743 mmHg 52%
09:00 +28°C° 0 mm 1 m/s 743 mmHg 46%
10:00 +29°C° 0 mm 2 m/s 742 mmHg 43%
11:00 +30°C° 0 mm 2 m/s 742 mmHg 41%
12:00 +33°C° 0 mm 3 m/s 741 mmHg 38%
13:00 +33°C° 0 mm 3 m/s 741 mmHg 36%
14:00 +34°C° 0 mm 3 m/s 740 mmHg 34%
15:00 +34°C° 0 mm 3 m/s 740 mmHg 32%
16:00 +32°C° 0 mm 2 m/s 740 mmHg 37%
17:00 +31°C° 0 mm 2 m/s 740 mmHg 43%
18:00 +29°C° 0 mm 2 m/s 739 mmHg 48%
19:00 +27°C° 0 mm 2 m/s 740 mmHg 49%
20:00 +25°C° 0 mm 2 m/s 740 mmHg 50%
21:00 +23°C° 0 mm 2 m/s 740 mmHg 51%
22:00 +21°C° 0 mm 2 m/s 740 mmHg 49%
23:00 +21°C° 0 mm 2 m/s 740 mmHg 47%

17 Mai, Lundi

Heure Température Précipitation Vent Pression Humidité
00:00 +20°C° 0 mm 2 m/s 739 mmHg 46%
01:00 +20°C° 0 mm 2 m/s 739 mmHg 45%
02:00 +19°C° 0 mm 2 m/s 739 mmHg 44%
03:00 +20°C° 0 mm 1 m/s 739 mmHg 43%
04:00 +20°C° 0 mm 1 m/s 739 mmHg 45%
05:00 +21°C° 0 mm 1 m/s 739 mmHg 46%
06:00 +21°C° 0 mm 1 m/s 739 mmHg 48%
07:00 +24°C° 0 mm 1 m/s 739 mmHg 44%
08:00 +26°C° 0 mm 1 m/s 739 mmHg 39%
09:00 +28°C° 0 mm 1 m/s 739 mmHg 35%
10:00 +29°C° 0 mm 2 m/s 739 mmHg 34%
11:00 +31°C° 0 mm 2 m/s 739 mmHg 33%
12:00 +32°C° 0 mm 2 m/s 739 mmHg 32%
13:00 +34°C° 0 mm 2 m/s 739 mmHg 31%
14:00 +34°C° 0 mm 3 m/s 739 mmHg 31%
15:00 +35°C° 0 mm 3 m/s 738 mmHg 30%
16:00 +32°C° 0 mm 2 m/s 739 mmHg 38%
17:00 +30°C° 0 mm 2 m/s 739 mmHg 45%
18:00 +28°C° 0 mm 2 m/s 739 mmHg 52%
19:00 +26°C° 0 mm 2 m/s 740 mmHg 56%
20:00 +25°C° 0 mm 2 m/s 740 mmHg 60%
21:00 +23°C° 0 mm 2 m/s 741 mmHg 64%
22:00 +21°C° 0.1 mm 2 m/s 741 mmHg 68%
23:00 +21°C° 0.1 mm 3 m/s 742 mmHg 73%

18 Mai, Mardi

Heure Température Précipitation Vent Pression Humidité
00:00 +20°C° 0.1 mm 4 m/s 742 mmHg 77%
01:00 +20°C° 0 mm 3 m/s 742 mmHg 78%
02:00 +19°C° 0 mm 3 m/s 742 mmHg 79%
03:00 +19°C° 0 mm 2 m/s 742 mmHg 80%
04:00 +19°C° 0 mm 2 m/s 742 mmHg 78%
05:00 +20°C° 0 mm 2 m/s 743 mmHg 77%
06:00 +20°C° 0 mm 2 m/s 743 mmHg 75%
07:00 +21°C° 0 mm 4 m/s 744 mmHg 71%
08:00 +22°C° 0 mm 5 m/s 744 mmHg 66%
09:00 +24°C° 0 mm 6 m/s 744 mmHg 61%
10:00 +24°C° 0.2 mm 6 m/s 745 mmHg 61%
11:00 +25°C° 0.2 mm 5 m/s 745 mmHg 61%
12:00 +25°C° 0.2 mm 5 m/s 745 mmHg 61%
13:00 +25°C° 0.6 mm 5 m/s 745 mmHg 64%
14:00 +25°C° 0.6 mm 4 m/s 745 mmHg 67%
15:00 +23°C° 0.6 mm 4 m/s 745 mmHg 71%
16:00 +22°C° 0.7 mm 4 m/s 745 mmHg 75%
17:00 +22°C° 0.7 mm 3 m/s 745 mmHg 78%
18:00 +21°C° 0.7 mm 3 m/s 745 mmHg 82%
19:00 +20°C° 0.6 mm 3 m/s 746 mmHg 84%
20:00 +20°C° 0.6 mm 3 m/s 746 mmHg 87%
21:00 +19°C° 0.6 mm 3 m/s 746 mmHg 89%
22:00 +19°C° 0.2 mm 2 m/s 746 mmHg 87%
23:00 +19°C° 0.2 mm 2 m/s 746 mmHg 86%

19 Mai, Mercredi

Heure Température Précipitation Vent Pression Humidité
00:00 +19°C° 0.2 mm 2 m/s 745 mmHg 85%
01:00 +20°C° 0 mm 1 m/s 745 mmHg 84%
02:00 +20°C° 0 mm 1 m/s 745 mmHg 83%
03:00 +20°C° 0 mm 1 m/s 745 mmHg 83%
04:00 +20°C° 0 mm 1 m/s 745 mmHg 83%
05:00 +20°C° 0 mm 1 m/s 745 mmHg 82%
06:00 +20°C° 0 mm 1 m/s 746 mmHg 82%
07:00 +22°C° 0 mm 1 m/s 745 mmHg 75%
08:00 +23°C° 0 mm 1 m/s 745 mmHg 68%
09:00 +25°C° 0 mm 1 m/s 745 mmHg 61%
10:00 +26°C° 0 mm 1 m/s 745 mmHg 57%
11:00 +27°C° 0 mm 2 m/s 744 mmHg 53%
12:00 +28°C° 0 mm 2 m/s 744 mmHg 49%
13:00 +29°C° 0.1 mm 3 m/s 743 mmHg 49%
14:00 +29°C° 0.1 mm 3 m/s 743 mmHg 48%
15:00 +29°C° 0.1 mm 3 m/s 743 mmHg 47%
16:00 +28°C° 0 mm 3 m/s 743 mmHg 51%
17:00 +28°C° 0 mm 3 m/s 743 mmHg 55%
18:00 +27°C° 0 mm 3 m/s 743 mmHg 60%
19:00 +25°C° 0.4 mm 2 m/s 743 mmHg 68%
20:00 +23°C° 0.4 mm 2 m/s 743 mmHg 76%
21:00 +21°C° 0.4 mm 1 m/s 743 mmHg 83%
22:00 +20°C° 0 mm 1 m/s 743 mmHg 84%
23:00 +20°C° 0 mm 1 m/s 742 mmHg 84%
Voir plus

Nous avons besoin de votre consentement

Meteoprog et ses fournisseurs de services peuvent stocker et accéder à des données personnelles telles que des cookies, des identifiants d'appareils ou d'autres technologies similaires sur votre appareil et traiter ces données pour personnaliser le contenu et les publicités, ainsi que pour fournir des fonctionnalités de médias sociaux et analyser le trafic.

  • Stocker et/ou accéder à des informations sur votre appareil

    Des cookies, des identifiants d'appareils ou d'autres informations peuvent être stockés ou accessibles sur votre appareil aux fins indiquées ci-dessus.

  • Annonces et contenus personnalisés, mesure des annonces et des contenus, connaissance de l'audience et développement de produits

    Les annonces et le contenu peuvent être personnalisés en fonction d'un profil. D'autres données peuvent être ajoutées pour mieux personnaliser les annonces et le contenu. Les performances des publicités et du contenu peuvent être mesurées. Il est possible d'obtenir des informations sur le public qui a vu les publicités et le contenu. Ces données peuvent être utilisées pour développer ou améliorer l'expérience de l'utilisateur, les systèmes et les logiciels.

En cliquant sur "J'accepte", vous autorisez l'utilisation de cookies, des identifiants d'appareils, des balises web ou d'autres technologies similaires. Vos paramètres peuvent être modifiés dans le navigateur de votre appareil.

Dans certains cas, des intérêts légitimes peuvent être invoqués plutôt qu'un consentement. Vous pouvez en savoir plus à ce sujet dans notre Politique de confidentialité et de cookies.